Weather in Bundaberg

Australia     24°52′07″S   152°20′53″E
temp.,
°C
wind,
m/s
gust,
m/s
humid.,
%
clouds,
%
prec.,
mm/h
press.,
hPa
HPBL,
m
21 january, thu
thu2101:00+22se410805 0.1 1016657
04:00+22ese497814 0.3 1015752
07:00+24ese586419 0.0 10171140
10:00+27ese685527 0.0 10161369
13:00+28ese685158 0.0 10141597
16:00+26ese795663 0.0 10131379
19:00+22ese486741 0.0 1014818
22:00+20sse347821 0.0 1015298
22 january, fri
fri2201:00+19sse348215 0.1 1014275
04:00+18sse248811 0.1 1013174
07:00+21sse357738 0.1 1014398
10:00+27e565536 0.1 10141362
13:00+28e554473 0.0 10121621
16:00+28e554485 0.0 10111349
19:00+23e4670100 0.0 1012367
22:00+22ese348274 0.0 1014245
23 january, sat
sat2301:00+21ese238696 0.0 1012210
04:00+20se248971 0.3 1012176
07:00+22sse357911 0.1 1013355
10:00+28ese565213 0.2 10141495
13:00+29e564828 0.0 10121714
16:00+27e675646 0.1 10111299
19:00+23ese48692 0.0 1013589
22:00+21ese37771 0.0 1015373
24 january, sun
sun2401:00+20se24872 0.0 1013210
04:00+19s259112 0.1 1012218
07:00+22sse357713 0.0 1013374
10:00+28ese675514 0.0 10121346
13:00+28e675326 0.1 10111422
16:00+28e564939 0.1 10091402
19:00+23ese37694 0.0 1010388
22:00+21ese34812 0.0 1012252
25 january, mon
mon2501:00+20sse23870 0.0 1010219
04:00+19sse24913 0.1 1009212
07:00+22s357910 0.0 1011308
10:00+28ese445417 0.2 10111348
13:00+29e454982 0.1 10081428
16:00+29e554450 0.1 10061295
19:00+24e36680 0.0 1008279
22:00+22ese24840 0.0 1010195